THORAD DELTA 1 DEB, 8162

Orbit data source: Space-Track

THORAD DELTA 1 DEB, 8162 is space debris in SSO originally from a launch on Fri, 15 Nov 1974 UTC launched from the Air Force Western Test Range (AFWTR). Debris objects in space refer to the collection of defunct objects orbiting the Earth. Examples of debris include non-operational satellites, rocket bodies, and fragments generated from explosions, collisions, or faulty payload assembly.

Loading next visibility...
Identifier
8162, 1974-089AC
Orbit
SSO
Country
Flag of USUS
Related business
Manufacturer
Unknown
Mission
Spacecraft
Bus & Motor
Unknown
Mass
Unknown
Launch date (UTC)
1974-11-15 (51 years ago)
Launch vehicle
Unknown
Launch site
Air Force Western Test Range (AFWTR)
Object type
Payload
Rocket body
Debris
Shape & HBR
Unknown shape, 0.1 m
Radar Cross Section
Small (<0.1 m²)

Expand to show TLE details & history
Last TLE update: 1 day ago

TLE from 1 day ago
0 THORAD DELTA 1 DEB
1 08162U 74089AC  25309.64474113  .00000968  00000-0  62958-2 0  9999
2 08162 100.8058 193.3506 0163580 290.2918  95.6376 12.50175556291894
Epoch: 2025-11-05T15:28Z
TLE epoch observation values (Epoch: 2025-11-05T15:28:25.633Z)
Latitude
27.29409°
Longitude
-89.49498°
Altitude
1,481.517 km
Speed
7.118 km/s
True Right ascension
12h 30m 54s
True Declination
27° 10' 02"
Sunlit
Object was in daylight at epoch
Visualization orbit readout
Latitude
Unknown
Longitude
Unknown
Altitude
Unknown
Speed
Unknown
Apparent Right ascension
Unknown
Apparent Declination
Unknown
Sunlit
N/A
Visualization observer readout
Local Sidereal Time
12:52:49
Azimuth
Unknown
Elevation
Unknown
Doppler factor
Unknown
Orbital elements
Apogee altitude
1,589.49 km
Perigee altitude
1,333.016 km
Semi-major axis
7,839.39 km
Eccentricity
0.01636
Inclination
100.8058°
RAAN
193.3506°
Arg. of periapsis
290.2918°
True anomaly
97.49895°
Mean anomaly
95.6376°
Eccentric anomaly
96.56869°
Mean motion
3.12694 °/min
Orbital period
115.13 mins
BSTAR
0.0062958
Loading maneuver chart data...
Computing Atmospheric mass density...

Documentation

Showing up to 5 results
|